Flag for U.S.A. Weather past 2 weeks in Louisville, Kentucky, U.S.A.

Now
26 °F

Light snow. More clouds than sun.


Feels Like: 13 °F
Forecast: 11 / 32 °F
Wind: 18 mph from North

Location: Standiford Field

Current Time: Feb 26, 2015 at 6:02:18 PM

Latest Report: Feb 26, 2015 at 4:56 PM


Visibility: 8 mi

Pressure: 30.18 "Hg

Humidity: 66%

Dew point: 16 °F

Location of LouisvilleLocation

Historic Weather in Louisville — Graph

°F

Louisville temperature yesterday

Maximum temperature yesterday: 38 °F (at 3:56 PM)
Minimum temperature yesterday: 25 °F (at 5:56 AM)
Average temperature yesterday: 32 °F

Past Weeks' High & Low Weather Summary

 TemperatureHumidityPressure
High49 °F (Feb 11, 4:56 PM)100% (Feb 17, 9:56 AM)30.66 "Hg (Feb 17, 9:56 AM)
Low-5 °F (Feb 20, 3:56 AM)31% (Feb 13, 3:56 PM)29.81 "Hg (Feb 18, 6:03 AM)
Average22 °F62%30.20 "Hg
* Reported Feb 11 4:56 PM — Feb 26 4:56 PM, Louisville, Weather by CustomWeather, © 2015

Note: Actual official high and low records may vary slightly from our data, if they occured in-between our weather recording intervals... More about our weather records

Advertising

Louisville weather history for previous 24 hours

 ConditionsComfort  
Time TempWeatherWind HumidityBarometerVisibility
4:56 PM
Thu, Feb 26
26 °FLight snow. More clouds than sun.18 mph66%30.18 "Hg8 mi
3:56 PM29 °FLight snow. Overcast.15 mph64%30.14 "Hg9 mi
2:56 PM31 °FOvercast.14 mph61%30.10 "Hg9 mi
1:56 PM32 °FBroken clouds.12 mph59%30.08 "Hg9 mi
12:56 PM32 °FPassing clouds.10 mph54%30.08 "Hg9 mi
11:56 AM31 °FPassing clouds.9 mph54%30.07 "Hg9 mi
10:56 AM29 °FMore clouds than sun.12 mph61%30.06 "Hg9 mi
9:56 AM28 °FMore clouds than sun.10 mph61%30.04 "Hg8 mi
8:56 AM27 °FPartly sunny.12 mph63%30.01 "Hg8 mi
7:56 AM25 °FBroken clouds.12 mph69%29.98 "Hg7 mi
6:56 AM24 °FPassing clouds.6 mph71%29.94 "Hg7 mi
5:56 AM25 °FPassing clouds.8 mph72%29.92 "Hg8 mi
4:56 AM28 °FPassing clouds.12 mph64%29.89 "Hg8 mi
3:56 AM28 °FPassing clouds.7 mph69%29.88 "Hg9 mi
2:56 AM30 °FPartly cloudy.7 mph64%29.87 "Hg9 mi
1:56 AM32 °FPartly cloudy.6 mph61%29.87 "Hg10 mi
12:56 AM33 °FOvercast.6 mph58%29.87 "Hg10 mi
11:56 PM
Wed, Feb 25
32 °FMostly cloudy.7 mph64%29.88 "Hg10 mi
10:56 PM33 °FOvercast.7 mph63%29.90 "Hg10 mi
9:56 PM34 °FMostly cloudy.8 mph64%29.88 "Hg8 mi
8:56 PM34 °FOvercast.6 mph64%29.88 "Hg9 mi
7:56 PM35 °FOvercast.7 mph61%29.86 "Hg9 mi
6:56 PM36 °FMostly cloudy.7 mph59%29.86 "Hg9 mi
Weather by CustomWeather, © 2015

See weather overviewHow to use our weather pages